TimeCDT,TemperatureF,Dew PointF,Humidity,Sea Level PressureIn,VisibilityMPH,Wind Direction,Wind SpeedMPH,Gust SpeedMPH,PrecipitationIn,Events,Conditions,WindDirDegrees,DateUTC
12:53 AM,77.0,66.0,69,30.03,10.0,SW,16.1,-,N/A,,Clear,230,2013-08-26 05:53:00
1:53 AM,77.0,66.0,69,30.04,10.0,WSW,19.6,-,N/A,,Clear,250,2013-08-26 06:53:00
2:53 AM,75.9,66.0,71,30.02,10.0,WSW,17.3,24.2,N/A,,Clear,240,2013-08-26 07:53:00
3:53 AM,77.0,64.9,66,30.04,10.0,WSW,15.0,-,N/A,,Clear,250,2013-08-26 08:53:00
4:53 AM,75.9,64.9,69,30.04,10.0,North,-9999.0,-,N/A,,Clear,0,2013-08-26 09:53:00
5:53 AM,75.9,64.9,69,30.05,10.0,West,13.8,20.7,N/A,,Partly Cloudy,260,2013-08-26 10:53:00
6:53 AM,75.0,66.0,73,30.06,10.0,WSW,12.7,-,N/A,,Mostly Cloudy,250,2013-08-26 11:53:00
7:53 AM,75.0,66.9,76,30.08,10.0,West,8.1,-,N/A,,Overcast,280,2013-08-26 12:53:00
8:53 AM,77.0,68.0,74,30.11,10.0,WNW,8.1,-,N/A,,Mostly Cloudy,300,2013-08-26 13:53:00
9:53 AM,78.1,68.0,71,30.09,10.0,WNW,5.8,-,N/A,,Clear,290,2013-08-26 14:53:00
10:53 AM,77.0,69.1,76,30.10,10.0,West,4.6,-,N/A,,Scattered Clouds,280,2013-08-26 15:53:00
11:53 AM,73.0,70.0,90,30.00,10.0,SW,9.2,-,0.06,Rain,Light Rain,220,2013-08-26 16:53:00
12:53 PM,79.0,71.1,77,29.99,10.0,SW,11.5,-,0.00,,Clear,220,2013-08-26 17:53:00
1:53 PM,87.1,70.0,57,29.97,10.0,SW,13.8,-,N/A,,Clear,220,2013-08-26 18:53:00
2:53 PM,90.0,68.0,48,29.96,10.0,SW,13.8,-,N/A,,Clear,220,2013-08-26 19:53:00
3:53 PM,91.0,69.1,48,29.94,10.0,WSW,11.5,21.9,N/A,,Clear,240,2013-08-26 20:53:00
4:53 PM,91.0,71.1,52,29.95,10.0,WNW,5.8,-,N/A,,Clear,300,2013-08-26 21:53:00
5:53 PM,78.1,66.9,68,29.96,10.0,NE,9.2,-,N/A,,Clear,40,2013-08-26 22:53:00
6:53 PM,75.0,68.0,79,29.96,10.0,NE,4.6,-,N/A,,Clear,40,2013-08-26 23:53:00
7:53 PM,72.0,68.0,87,29.95,10.0,NNE,3.5,-,N/A,,Clear,20,2013-08-27 00:53:00
8:53 PM,71.1,69.1,93,29.96,8.0,North,-9999.0,-,N/A,,Clear,0,2013-08-27 01:53:00
9:02 PM,71.6,69.8,94,29.97,9.0,Calm,Calm,-,N/A,,Clear,0,2013-08-27 02:02:00
9:53 PM,70.0,69.1,97,29.96,7.0,West,3.5,-,N/A,,Clear,280,2013-08-27 02:53:00
10:53 PM,70.0,69.1,97,29.95,9.0,Calm,Calm,-,N/A,,Clear,0,2013-08-27 03:53:00
11:53 PM,70.0,69.1,97,29.94,8.0,Calm,Calm,-,N/A,,Clear,0,2013-08-27 04:53:00